This is the latest recevied weather packets stored in our database for station/object N0HEQ. If no packets are shown the sender has not sent any weather packets the latest 10 day(s).
| Time | Temp. | Humidity | Pressure | Rain* | Wind** | Luminosity | Snow |
|---|---|---|---|---|---|---|---|
| 1777993789 | 2.22° C | 97% | 1017.4 hPa | 0 mm | - | 39 W/m² | - |
| 1777993485 | 2.22° C | 97% | 1017.5 hPa | 0 mm | - | 34 W/m² | - |
| 1777993185 | 2.22° C | 97% | 1017.4 hPa | 0 mm | - | 41 W/m² | - |
| 1777992883 | 2.22° C | 97% | 1017.5 hPa | 0 mm | - | 40 W/m² | - |
| 1777992581 | 2.22° C | 97% | 1017.5 hPa | 0 mm | - | 43 W/m² | - |
| 1777992279 | 2.22° C | 97% | 1017.7 hPa | 0 mm | - | 45 W/m² | - |
| 1777991976 | 2.22° C | 97% | 1017.6 hPa | 0 mm | - | 40 W/m² | - |
| 1777991674 | 2.22° C | 97% | 1017.6 hPa | 0 mm | - | 46 W/m² | - |
| 1777991370 | 2.22° C | 97% | 1017.5 hPa | 0 mm | - | 51 W/m² | - |
| 1777991068 | 2.22° C | 97% | 1017.6 hPa | 0 mm | - | 41 W/m² | - |
| 1777990765 | 2.22° C | 97% | 1017.9 hPa | 0 mm | - | 30 W/m² | - |
| 1777990462 | 2.22° C | 97% | 1017.7 hPa | 0 mm | - | 25 W/m² | - |
| 1777989855 | 2.22° C | 97% | 1017.9 hPa | 0 mm | - | 28 W/m² | - |
| 1777989552 | 2.22° C | 97% | 1017.9 hPa | 0 mm | - | 30 W/m² | - |
| 1777989249 | 2.22° C | 97% | 1017.7 hPa | 0 mm | - | 20 W/m² | - |
| 1777988945 | 2.22° C | 97% | 1017.7 hPa | 0 mm | - | 14 W/m² | - |
| 1777988642 | 2.22° C | 97% | 1017.5 hPa | 0 mm | - | 16 W/m² | - |
| 1777988338 | 2.22° C | 97% | 1017.4 hPa | 0 mm | - | 14 W/m² | - |
| 1777988035 | 2.22° C | 97% | 1017.4 hPa | 0 mm | - | 14 W/m² | - |
| 1777987731 | 2.22° C | 97% | 1017.4 hPa | 0 mm | - | 11 W/m² | - |
| 1777987428 | 2.22° C | 97% | 1017.2 hPa | 0 mm | - | 11 W/m² | - |
| 1777987125 | 2.22° C | 97% | 1017.2 hPa | 0 mm | - | 8 W/m² | - |
| 1777986823 | 2.22° C | 96% | 1016.9 hPa | 0 mm | - | 5 W/m² | - |
| 1777986520 | 2.22° C | 96% | 1017.2 hPa | 0 mm | - | 6 W/m² | - |
| 1777986218 | 2.22° C | 96% | 1017 hPa | 0 mm | - | 6 W/m² | - |
* Rain latest hour (hover to see other rain measurements)
** Current wind speed in m/s (hover to see current wind gust speed)